#timestamp,LO_Frequency,Hit,StdDev 
1550286015.1,286047002.6,N
1550286035.9,286046999.7,N
1550286055.7,286047000.4,N
1550286075.5,286047002.5,N
1550286095.4,286047004.4,N
1550286115.2,286047001.7,N
1550286135.0,286047002.3,N
1550286135.9,286047002.3,N
1550286155.8,286047000.5,N
1550286175.6,286047000.0,N
1550286195.5,286046998.6,N
1550286215.3,286047000.7,N
1550286235.1,286047000.8,N
1550286255.9,286046998.5,N
1550286275.7,286047002.8,N
1550286295.5,286047002.4,N
1550286315.4,286047002.3,N
1550286335.2,286047000.6,N
1550286355.1,286047001.2,N
1550286356.0,286047001.2,N
1550286375.8,286046999.1,N
1550286395.6,286046996.8,N
1550286415.5,286046997.9,N
1550286435.3,286046996.9,N
1550286455.2,286046998.6,N
1550286475.9,286047000.0,N
1550286495.7,286046999.9,N
1550286515.6,286046999.0,N
1550286535.4,286046999.6,N
1550286555.2,286046999.2,N
1550286575.1,286046998.3,N
1550286576.0,286046998.3,N
1550286595.8,286046998.8,N
1550286615.7,286046999.4,N
1550286635.5,286046997.7,N
1550286655.3,286046997.0,N
1550286675.2,286046999.0,N
1550286695.0,286046999.6,N
1550286695.9,286046999.6,N
1550286715.7,286046997.3,N
1550286735.6,286046998.0,N
1550286755.4,286046995.7,N
1550286775.3,286046997.7,N
1550286795.1,286046998.4,N
1550286796.0,286046998.4,N
1550286815.8,286046996.9,N
1550286835.7,286046999.4,N
1550286855.5,286047002.6,N
1550286875.3,286046998.5,N
1550286895.2,286046999.5,N
1550286915.0,286046999.5,N
1550286915.9,286046999.5,N
1550286935.8,286046998.6,N
1550286955.6,286047001.0,N
1550286975.4,286046999.2,N
1550286995.3,286046998.6,N
1550287015.1,286046999.9,N
1550287035.8,286047001.7,N
1550287055.7,286047004.4,Y
1550287075.5,286047003.0,P
1550287095.4,286047003.3,N
1550287115.2,286047005.6,N
1550287135.0,286047003.9,N
1550287135.9,286047003.9,N
1550287155.8,286047002.5,N
1550287175.6,286047000.1,N
1550287195.4,286047003.2,N
1550287215.3,286047003.4,N
1550287235.1,286047003.2,N
1550287255.9,286047003.4,N
1550287275.7,286047003.6,N
1550287295.5,286047003.8,N
1550287315.4,286047001.7,N
1550287335.2,286047003.2,N
1550287355.0,286047001.8,N
1550287355.9,286047001.8,N
1550287375.8,286046999.8,N
1550287395.6,286047000.0,N
1550287415.5,286047002.8,N
1550287435.3,286047003.9,N
1550287455.1,286047002.8,N
1550287475.9,286047001.7,N
1550287495.7,286047003.8,N
1550287515.5,286047003.5,N
1550287535.4,286047003.8,N
1550287555.2,286047003.8,N
1550287575.1,286047003.1,N
1550287576.0,286047003.1,N
1550287595.8,286047004.2,N
1550287615.6,286047002.5,N
1550287635.5,286047001.6,N
1550287655.3,286047003.1,N
1550287675.1,286047003.1,N
1550287695.9,286047003.5,N
1550287715.7,286047001.7,N
1550287735.6,286047001.5,N
1550287755.4,286047003.0,N
1550287775.2,286047002.2,N
1550287795.1,286047001.7,N
1550287796.0,286047001.7,N
1550287815.8,286047004.3,Y
1550287865.7,286047000.4,E
1550287875.6,286047000.5,N
1550287895.4,286046999.9,P
1550287915.3,286047000.1,N
1550287935.1,286047003.6,Y
1550287955.9,286047001.7,P
1550287975.7,286047001.5,N
1550287995.5,286046999.7,N
1550288015.4,286046998.1,N
1550288035.2,286046998.1,N
1550288055.0,286046999.1,N
1550288055.9,286046999.1,N
1550288075.8,286046997.0,N
1550288095.6,286046995.0,Y
1550288115.5,286046997.3,P
1550288135.3,286046997.2,N
1550288155.1,286046997.2,N
1550288175.9,286046997.8,N
1550288195.7,286046995.3,Y
1550288215.5,286046998.3,P
1550288235.4,286046998.6,P
1550288255.2,286047001.2,P
1550288275.1,286047000.8,N
1550288276.0,286047000.8,N
1550288295.8,286046998.3,N
1550288315.6,286046998.7,N
1550288335.5,286047000.6,N
1550288355.3,286047002.3,N
1550288375.1,286047000.3,N
1550288395.9,286047000.3,N
1550288415.7,286046999.9,N
1550288435.6,286047000.4,N
1550288455.4,286047002.4,N
1550288475.2,286047002.3,N
1550288495.1,286047000.2,N
1550288496.0,286047000.2,N
1550288515.8,286047000.3,N
1550288535.6,286046998.5,N
1550288555.5,286046998.3,N
1550288575.3,286046998.2,N
1550288595.2,286046998.1,N
1550288615.9,286046998.2,N
1550288635.7,286047002.5,N
1550288655.6,286046999.8,N
1550288675.4,286047000.2,N
1550288695.2,286047000.2,N
1550288715.1,286047002.1,N
1550288716.0,286047002.1,N
1550288735.8,286047001.9,N
1550288755.7,286047001.8,N
1550288775.5,286047004.0,N
1550288795.3,286047002.6,N
1550288815.2,286047002.6,N
1550288835.9,286047001.4,N
1550288855.7,286047001.5,N
1550288875.6,286047005.8,Y
1550288895.4,286047005.9,P
1550288915.3,286047005.7,N
1550288935.1,286047002.9,N
1550288936.0,286047002.9,N
1550288955.8,286047003.2,N
1550288975.7,286047001.3,N
1550288995.5,286047004.0,N
1550289015.3,286047002.0,N
1550289035.2,286047002.4,N
1550289055.0,286047002.8,N
1550289055.9,286047002.8,N
1550289075.7,286047000.3,N
1550289095.6,286047001.1,N
1550289115.4,286046999.7,N
1550289135.3,286047000.2,N
1550289155.1,286047002.5,N
1550289156.0,286047002.5,N
1550289175.8,286047000.3,N
1550289195.7,286047002.3,N
1550289215.5,286047000.1,N
1550289235.3,286047004.4,N
1550289255.2,286047001.7,N
1550289275.0,286047003.2,N
1550289275.9,286047003.2,N
1550289295.8,286047001.9,N
1550289315.6,286047001.9,N
1550289335.4,286047001.5,N
1550289355.3,286047004.3,N
1550289375.1,286047005.2,Y
1550289395.9,286047005.4,P
1550289415.7,286047003.8,N
1550289435.5,286047004.1,P
1550289455.4,286047003.8,Y
1550289475.2,286047000.9,P
1550289495.0,286047000.9,N
1550289495.9,286047000.9,N
1550289515.8,286047000.6,N
1550289535.6,286047000.1,N
1550289555.4,286046997.2,N
1550289575.3,286046997.3,N
1550289595.1,286046997.5,N
